Location: Geremba
(10.4250°N, 67.2394°W)
Time: 23:01:50
(UTC+00:00)

Cosmos 2218 Rocket - Pass Details

Date: 19 August 2024
Orbit: 956 x 1005 km, 82.9° (Epoch: 16 September)

Event Time Altitude Azimuth Distance (km) Brightness Sun altitude
Rises 09:32:47 0° 7° (N) 3,714 7.3 -12.0°
Reaches altitude 10° 09:35:26 10° 12° (NNE) 2,761 6.7 -11.4°
Maximum altitude 09:41:30 48° 86° (E) 1,278 5.2 -9.9°
Drops below altitude 10° 09:47:29 10° 158° (SSE) 2,733 6.5 -8.5°
Sets 09:50:05 0° 164° (SSE) 3,673 7.0 -7.9°
